Tracking 35331 objects as of 16-Sep-2026
HD Live streaming from Space Station
objects crossing your sky now

CZ-2F DEB


CZ-2F DEB is no longer on orbit


NORAD ID: 28048
Int'l Code: 2003-045F
Launch date: October 15, 2003
Source: People's Republic of China (PRC)
Launch site: Jiuquan Satellite Launch Center, China (JSC)
Decay date: 2003-10-21

Note: This is SATELLITE DEBRIS
Your satellite tracking list
Your tracking list is empty




NASA's NSSDC Master Catalog

Two Line Element Set (TLE):
1 28048U 03045F   03289.61138380 +.08184629 +76460-5 +66470-2 0  9997
2 28048 042.2705 020.8280 0182438 129.5483 232.7797 15.87201890000257
Source of the keplerian elements: AFSPC